COSMOS 2491 DEB, 57557

Orbit data source: Space-Track

COSMOS 2491 DEB, 57557 is space debris in LEO originally from a launch on Wed, 25 Dec 2013 UTC launched from the Plesetsk Missile And Space Complex (PKMTR). Debris objects in space refer to the collection of defunct objects orbiting the Earth. Examples of debris include non-operational satellites, rocket bodies, and fragments generated from explosions, collisions, or faulty payload assembly.

Loading next visibility...
Identifier
57557, 2013-076AU
Orbit
LEO
Country
Flag of CISCIS
Related business
Manufacturer
TsNIIKhM
Mission
Spacecraft
Bus & Motor
Unknown
Mass
Unknown
Launch date (UTC)
2013-12-25 (12 years ago)
Launch vehicle
Unknown
Launch site
Plesetsk Missile And Space Complex (PKMTR)
Object type
Payload
Rocket body
Debris
Shape & HBR
Unknown shape, 0.1 m
Radar Cross Section
Medium (>0.1 m² and <1 m²)

Expand to show TLE details & history
Last TLE update: 1 month ago

TLE from 1 month ago
0 COSMOS 2491 DEB
1 57557U 13076AU  26140.36120952  .00000588  00000-0  38124-2 0  9998
2 57557  82.4805 184.1217 0134950 119.9543 241.5016 12.47158949137714
Epoch: 2026-05-20T08:40Z
TLE epoch observation values (Epoch: 2026-05-20T08:40:08.502Z)
Latitude
-0.0001°
Longitude
176.06439°
Altitude
1,530.785 km
Speed
7.077 km/s
True Right ascension
12h 16m 29s
True Declination
0° 00' 00"
Sunlit
Object was in daylight at epoch
Visualization orbit readout
Latitude
Unknown
Longitude
Unknown
Altitude
Unknown
Speed
Unknown
Apparent Right ascension
Unknown
Apparent Declination
Unknown
Sunlit
N/A
Visualization observer readout
Local Sidereal Time
00:50:38
Azimuth
Unknown
Elevation
Unknown
Doppler factor
Unknown
Orbital elements
Apogee altitude
1,579.707 km
Perigee altitude
1,367.785 km
Semi-major axis
7,851.883 km
Eccentricity
0.0135
Inclination
82.4805°
RAAN
184.1217°
Arg. of periapsis
119.9543°
True anomaly
240.15354°
Mean anomaly
241.5016°
Eccentric anomaly
240.82648°
Mean motion
3.11948 °/min
Orbital period
115.4 mins
BSTAR
0.0038124
Loading maneuver chart data...
Computing Atmospheric mass density...
Loading historical data...
Loading historical data...
Loading historical data...
Loading historical data...
Loading historical data...
Loading historical data...
Loading historical data...

Documentation

Showing up to 5 results
|